ボク彗星

C/2026 AZ17 ( Bok )

English version
Home page
Updated on June 12, 2026

---------------------------------------------------------------------

・ プロフィール

発見日 2026年1月13日
発見光度 22.1等
発見者 Bok reflector at Kitt Peak

・ 写真集

・ 軌道要素

Epoch 2026 June 9.0 TT = JDT 2461200.5                                          
T 2026 Nov. 23.22578 TT                                 Pike                    
q   2.4726630            (2000.0)            P               Q                  
z  +0.0154255      Peri.  146.91264     +0.50505994     +0.81082397             
 +/-0.0000121      Node   149.97438     -0.86279444     +0.48319904             
e   0.9618578      Incl.   36.23362     -0.02236527     -0.33027743             
From 242 observations 2026 Jan. 13-June 8, mean residual 0".4.                  

・ 光度変化

        m1 = 11.5 + 5 logΔ + 10.0 log r

---------------------------------------------------------------------

軌道要素はM.P.E.C. 2026-L52に掲載されたものです。
光度グラフはComet for Windowsで作成したものです。

---------------------------------------------------------------------

Copyright(C) Seiichi Yoshida (comet@aerith.net). All rights reserved.